DW6558 Weather Reports


time (UTC)temp
F
wind
direction
speed
knots
gust
knots
rain 1hr
in
rain 24hr
in
rain mn
in
humidity
%
barometer
mb
20260507051857 43 33 0.0 0.0 0.00 0.00 0.00 61 933.4
20260507051354 43 34 0.0 0.0 0.00 0.00 0.00 59 933.1
20260507050851 43 35 0.0 0.0 0.00 0.00 0.00 61 933.3
20260507050348 43 44 0.0 0.0 0.00 0.00 0.00 62 933.5
20260507045845 43 56 0.0 0.0 0.00 0.00 0.00 63 933.3
20260507045341 43 52 0.0 0.0 0.00 0.00 0.00 63 933.3
20260507044838 43 50 0.0 0.0 0.00 0.00 0.00 64 933.5
20260507044335 44 61 0.0 0.0 0.00 0.00 0.00 62 933.4
20260507043830 46 35 0.0 0.0 0.00 0.00 0.00 54 933.3
20260507043327 47 291 0.0 0.0 0.00 0.00 0.00 50 933.4
20260507042824 47 258 0.0 0.0 0.00 0.00 0.00 51 933.2
20260507042319 47 241 0.0 4.3 0.00 0.00 0.00 51 933.3
20260507041817 46 223 4.3 7.0 0.00 0.00 0.00 52 933.2
20260507041313 46 217 2.6 6.1 0.00 0.00 0.00 54 933.4
20260507040810 46 224 3.5 7.8 0.00 0.00 0.00 55 933.3
20260507040306 46 219 4.3 7.8 0.00 0.00 0.00 56 933.2
20260507035802 46 217 0.0 7.0 0.00 0.00 0.00 55 933.4
20260507035257 46 267 1.7 6.1 0.00 0.00 0.00 54 933.3
20260507034756 47 204 2.6 6.1 0.00 0.00 0.00 53 932.9
20260507034252 47 241 0.0 7.8 0.00 0.00 0.00 53 933.3
20260507033751 47 226 4.3 6.1 0.00 0.00 0.00 53 933.3
20260507033248 47 221 0.9 7.0 0.00 0.00 0.00 54 933.2
20260507032745 47 212 2.6 6.1 0.00 0.00 0.00 53 932.9
20260507032241 48 215 0.0 0.9 0.00 0.00 0.00 53 932.8
20260507031738 48 242 0.0 6.1 0.00 0.00 0.00 54 932.7
20260507031235 48 292 3.5 5.2 0.00 0.00 0.00 55 932.9
20260507030731 48 230 0.0 0.0 0.00 0.00 0.00 54 932.5
20260507030229 49 288 0.0 0.0 0.00 0.00 0.00 52 932.4
20260507025726 49 238 0.0 0.0 0.00 0.00 0.00 52 932.3
20260507025223 50 252 0.0 1.7 0.00 0.00 0.00 50 932.3
20260507024721 50 297 0.0 5.2 0.00 0.00 0.00 48 932.4
20260507024218 51 247 0.0 2.6 0.00 0.00 0.00 46 932.3
20260507023713 51 253 0.0 1.7 0.00 0.00 0.00 44 932.1
20260507023211 51 273 0.0 4.3 0.00 0.00 0.00 44 932.1
20260507022708 52 316 0.0 6.1 0.00 0.00 0.00 43 932.3
20260507022204 52 265 0.9 7.0 0.00 0.00 0.00 42 932.0
20260507021700 53 247 0.9 5.2 0.00 0.00 0.00 40 932.1
20260507021155 54 265 0.9 2.6 0.00 0.00 0.00 38 932.0
20260507020654 54 335 0.9 4.3 0.00 0.00 0.00 37 932.3
20260507020149 55 330 0.0 2.6 0.00 0.00 0.00 37 932.6
20260507015648 55 17 1.7 5.2 0.00 0.00 0.00 35 932.7
20260507015145 56 50 0.0 0.0 0.00 0.00 0.00 36 932.7
20260507014641 56 305 0.0 5.2 0.00 0.00 0.00 36 932.7
20260507014138 55 333 0.9 2.6 0.00 0.00 0.00 36 932.9
20260507013635 55 350 0.9 6.1 0.00 0.00 0.00 35 932.6
20260507013132 56 331 4.3 7.8 0.00 0.00 0.00 35 932.6
20260507012629 56 313 6.1 9.6 0.00 0.00 0.00 34 932.5
20260507012124 55 325 6.1 8.7 0.00 0.00 0.00 34 932.4
20260507011623 55 297 7.0 11.3 0.00 0.00 0.00 34 932.6
20260507011119 55 327 6.1 8.7 0.00 0.00 0.00 34 932.6
20260507010614 56 325 6.1 11.3 0.00 0.00 0.00 35 932.5
20260507010110 56 334 4.3 7.0 0.00 0.00 0.00 35 932.6
20260507005608 56 351 1.7 7.8 0.00 0.00 0.00 33 932.7
20260507005103 56 322 0.9 11.3 0.00 0.00 0.00 34 932.7
20260507004600 57 324 7.8 12.2 0.00 0.00 0.00 34 932.6
20260507004058 56 352 1.7 11.3 0.00 0.00 0.00 34 932.5
20260507003554 56 358 5.2 12.2 0.00 0.00 0.00 35 932.6
20260507003049 57 320 3.5 6.1 0.00 0.00 0.00 35 932.9
20260507002546 56 311 0.9 9.6 0.00 0.00 0.00 36 932.7
20260507002041 56 314 8.7 8.7 0.00 0.00 0.00 35 932.7
20260507001538 57 325 3.5 6.1 0.00 0.00 0.00 35 932.6
20260507001036 57 2 3.5 5.2 0.00 0.00 0.00 34 932.5
20260507000532 57 357 3.5 6.1 0.00 0.00 0.00 36 932.7
20260507000027 56 325 0.0 5.2 0.00 0.00 0.00 36 932.7
20260506235525 55 338 2.6 7.8 0.00 0.00 0.00 36 932.7
20260506235021 56 326 7.8 13.0 0.00 0.00 0.00 37 932.9
20260506234519 56 279 0.9 6.1 0.00 0.00 0.00 39 932.8
20260506234016 56 234 0.9 1.7 0.00 0.00 0.00 40 932.8
20260506233512 55 195 0.9 5.2 0.00 0.00 0.00 42 932.9
20260506233009 54 311 3.5 7.8 0.00 0.00 0.00 42 932.7
20260506232505 56 310 7.8 9.6 0.00 0.00 0.00 41 932.7
20260506232001 56 173 0.0 1.7 0.00 0.00 0.00 42 932.7
20260506231458 56 241 0.0 4.3 0.00 0.00 0.00 42 932.9
20260506230956 55 203 0.0 4.3 0.00 0.00 0.00 44 932.9
20260506230451 55 308 8.7 11.3 0.00 0.00 0.00 42 932.7
20260506225948 55 265 0.9 2.6 0.00 0.00 0.00 42 932.8
20260506225446 56 260 2.6 8.7 0.00 0.00 0.00 43 932.7
20260506224943 54 297 0.0 4.3 0.00 0.00 0.00 44 932.8
20260506224440 54 303 1.7 5.2 0.00 0.00 0.00 43 932.7
20260506223936 55 194 4.3 8.7 0.00 0.00 0.00 42 932.8
20260506223432 53 220 4.3 8.7 0.00 0.00 0.00 44 932.9
20260506222929 55 214 4.3 6.1 0.00 0.00 0.00 42 932.7
20260506222426 54 339 1.7 6.1 0.00 0.00 0.00 43 933.2
20260506221923 53 337 1.7 7.0 0.00 0.00 0.00 44 933.1
20260506221420 52 348 0.0 8.7 0.00 0.00 0.00 43 933.2
20260506220918 53 33 0.9 2.6 0.00 0.00 0.00 42 933.2
20260506220413 53 274 0.0 2.6 0.00 0.00 0.00 44 932.9
20260506215910 52 24 0.0 0.9 0.00 0.00 0.00 43 933.2
20260506215406 52 240 0.0 0.0 0.00 0.00 0.00 42 933.2
20260506214902 52 305 4.3 7.8 0.00 0.00 0.00 45 933.2
20260506214359 51 170 0.0 0.0 0.00 0.00 0.00 43 933.4
20260506213857 50 280 4.3 6.1 0.00 0.00 0.00 44 933.2
20260506213354 51 343 2.6 7.8 0.00 0.00 0.00 44 933.4
20260506212851 51 308 4.3 6.1 0.00 0.00 0.00 43 933.3
20260506212347 49 351 0.0 9.6 0.00 0.00 0.00 43 933.5
20260506211842 49 0 0.0 7.0 0.00 0.00 0.00 43 933.6
20260506211338 49 328 2.6 6.1 0.00 0.00 0.00 42 933.5
20260506210835 49 44 0.0 0.0 0.00 0.00 0.00 40 933.7
20260506210332 48 331 2.6 5.2 0.00 0.00 0.00 41 933.7
20260506205830 49 330 3.5 12.2 0.00 0.00 0.00 41 933.6
20260506205325 51 1 4.3 8.7 0.00 0.00 0.00 37 933.3
20260506204822 51 299 0.0 0.9 0.00 0.00 0.00 38 933.5
20260506204320 50 258 0.9 4.3 0.00 0.00 0.00 39 933.6
20260506203817 49 353 0.0 6.1 0.00 0.00 0.00 38 933.4
20260506203314 48 337 0.0 1.7 0.00 0.00 0.00 39 933.5
20260506202811 48 333 3.5 7.8 0.00 0.00 0.00 38 933.5
20260506202308 49 290 5.2 6.1 0.00 0.00 0.00 36 933.6
20260506201804 47 298 6.1 8.7 0.00 0.00 0.00 38 933.5
20260506201302 46 352 4.3 6.1 0.00 0.00 0.00 38 933.5
20260506200759 47 23 0.0 0.0 0.00 0.00 0.00 36 933.5
20260506200255 47 314 0.9 5.2 0.00 0.00 0.00 37 933.4
20260506195751 47 258 0.0 1.7 0.00 0.00 0.00 38 933.5
20260506195248 47 318 0.9 6.1 0.00 0.00 0.00 36 933.4
20260506194745 47 291 0.0 6.1 0.00 0.00 0.00 35 933.4
20260506194241 47 232 0.0 0.9 0.00 0.00 0.00 37 933.6
20260506193740 46 306 0.9 5.2 0.00 0.00 0.00 43 933.4
20260506193236 45 304 4.3 7.0 0.00 0.00 0.00 39 933.3
20260506192732 45 334 3.5 9.6 0.00 0.00 0.00 42 933.5
20260506192229 46 321 7.0 8.7 0.00 0.00 0.00 43 933.3
20260506191726 44 334 0.0 8.7 0.00 0.00 0.00 44 933.7
20260506191222 44 6 7.8 11.3 0.00 0.00 0.00 41 933.4
20260506190720 45 343 7.8 9.6 0.00 0.00 0.00 41 933.5
20260506190216 44 267 4.3 7.8 0.00 0.00 0.00 47 933.5
20260506185713 45 299 2.6 7.0 0.00 0.00 0.00 49 933.9
20260506185209 44 232 4.3 5.2 0.00 0.00 0.00 51 933.5
20260506184707 43 292 3.5 7.8 0.00 0.00 0.00 51 933.6
20260506184204 43 346 6.1 7.8 0.00 0.00 0.00 52 933.5
20260506183701 42 352 7.8 9.6 0.00 0.00 0.00 56 933.7
20260506183157 43 272 4.3 7.8 0.00 0.00 0.00 54 933.2
20260506182654 43 6 2.6 4.3 0.00 0.00 0.00 54 933.5
20260506182151 44 310 6.1 12.2 0.00 0.00 0.00 55 933.5
20260506181649 44 326 2.6 2.6 0.00 0.00 0.00 50 933.7
20260506181146 43 353 9.6 11.3 0.00 0.00 0.00 48 933.6
20260506180643 43 316 4.3 5.2 0.00 0.00 0.00 52 933.4
20260506180139 42 359 4.3 6.1 0.00 0.00 0.00 52 933.5
20260506175636 43 123 2.6 2.6 0.00 0.00 0.00 53 933.2
20260506175132 40 297 2.6 2.6 0.00 0.00 0.00 58 933.2
20260506174625 40 334 4.3 6.1 0.00 0.00 0.00 60 932.8
20260506174121 40 352 4.3 7.0 0.00 0.00 0.00 63 933.2
20260506173619 40 59 0.9 5.2 0.00 0.00 0.00 56 933.1
20260506173115 43 31 3.5 5.2 0.00 0.00 0.00 57 933.2
20260506172613 42 132 2.6 5.2 0.00 0.00 0.00 60 933.2
20260506172109 42 72 4.3 6.1 0.00 0.00 0.00 59 933.1
20260506171607 41 163 2.6 4.3 0.00 0.00 0.00 58 933.2
20260506171104 41 75 1.7 4.3 0.00 0.00 0.00 58 932.9
20260506170601 39 106 0.9 7.0 0.00 0.00 0.00 62 932.9
20260506170059 40 83 2.6 6.1 0.00 0.00 0.00 63 933.1
20260506165557 40 130 4.3 6.1 0.00 0.00 0.00 66 933.1
20260506165053 39 87 2.6 2.6 0.00 0.00 0.00 66 932.7
20260506164550 39 96 5.2 6.1 0.00 0.00 0.00 66 932.6
20260506164047 38 68 2.6 5.2 0.00 0.00 0.00 68 932.7
20260506163543 38 108 3.5 6.1 0.00 0.00 0.00 69 932.7
20260506163039 38 124 1.7 4.3 0.00 0.00 0.00 69 932.8
20260506162535 38 79 4.3 6.1 0.00 0.00 0.00 69 932.6
20260506162033 37 80 2.6 4.3 0.00 0.00 0.00 70 932.5
20260506161530 38 60 1.7 4.3 0.00 0.00 0.00 68 932.8
20260506161027 37 51 0.9 6.1 0.00 0.00 0.00 69 932.5
20260506160525 36 99 1.7 2.6 0.00 0.00 0.00 70 932.8
20260506160022 38 68 0.0 0.9 0.00 0.00 0.00 71 932.4
20260506155520 36 87 1.7 4.3 0.00 0.00 0.00 74 932.5
20260506153651 35 75 2.6 4.3 0.00 0.00 0.00 77 932.5
20260506153149 34 56 1.7 2.6 0.00 0.00 0.00 77 932.5
20260506152645 34 77 2.6 4.3 0.00 0.00 0.00 78 932.6
20260506152143 33 47 1.7 4.3 0.00 0.00 0.00 78 932.9
20260506151641 34 92 2.6 2.6 0.00 0.00 0.00 77 932.6
20260506151138 33 123 2.6 4.3 0.00 0.00 0.00 78 932.5
20260506150635 34 77 1.7 4.3 0.00 0.00 0.00 79 932.7
20260506150132 34 103 2.6 5.2 0.00 0.00 0.00 79 933.1
20260506145629 34 87 4.3 5.2 0.00 0.00 0.00 80 933.1
20260506145125 34 90 2.6 5.2 0.00 0.00 0.00 80 933.3
20260506144623 33 122 5.2 7.0 0.00 0.00 0.00 80 933.5
20260506144119 33 59 3.5 6.1 0.00 0.00 0.00 81 933.5
20260506143617 33 102 3.5 7.0 0.00 0.00 0.00 81 933.9
20260506143115 33 112 4.3 5.2 0.00 0.00 0.00 82 934.1
20260506142613 32 118 2.6 5.2 0.00 0.00 0.00 83 934.3
20260506142111 32 97 2.6 4.3 0.00 0.00 0.00 83 934.1
20260506141608 32 111 4.3 5.2 0.00 0.00 0.00 83 933.7
20260506141107 32 107 2.6 4.3 0.00 0.00 0.00 84 932.9
20260506140604 32 105 3.5 5.2 0.00 0.00 0.00 85 932.1
20260506140101 31 111 2.6 5.2 0.00 0.00 0.00 86 931.3
20260506135557 31 90 7.0 8.7 0.00 0.00 0.00 86 931.5
20260506135054 31 101 4.3 6.1 0.00 0.00 0.00 87 931.6
20260506134550 31 87 6.1 7.0 0.00 0.00 0.00 87 931.7
20260506134046 31 107 5.2 7.0 0.00 0.00 0.00 87 931.2
20260506133544 30 71 4.3 6.1 0.00 0.00 0.00 87 931.1
20260506133041 30 78 4.3 8.7 0.00 0.00 0.00 87 931.1
20260506132538 30 74 3.5 7.8 0.00 0.00 0.00 87 931.0
20260506132035 30 95 6.1 7.8 0.00 0.00 0.00 87 931.0
20260506131532 30 108 4.3 7.8 0.00 0.00 0.00 87 930.9
20260506131028 30 122 4.3 7.0 0.00 0.00 0.00 87 930.7
20260506130525 30 109 3.5 7.8 0.00 0.00 0.00 87 930.8
20260506130023 30 91 6.1 8.7 0.00 0.00 0.00 87 930.3
20260506125521 30 90 7.8 8.7 0.00 0.00 0.00 88 930.8
20260506125018 30 112 6.1 8.7 0.00 0.00 0.00 88 930.5
20260506124516 30 92 5.2 7.8 0.00 0.00 0.00 89 930.4
20260506124014 30 110 3.5 6.1 0.00 0.00 0.00 89 930.3
20260506123512 30 79 3.5 6.1 0.00 0.00 0.00 89 930.5
20260506123009 30 65 4.3 7.0 0.00 0.00 0.00 89 930.3
20260506122506 29 101 6.1 7.0 0.00 0.00 0.00 89 930.2
20260506122004 29 87 2.6 7.8 0.00 0.00 0.00 90 930.0
20260506121501 28 72 5.2 6.1 0.00 0.00 0.00 91 929.9
20260506120957 27 95 5.2 7.0 0.00 0.00 0.00 91 930.0
20260506120455 27 71 0.0 0.0 0.00 0.00 0.00 91 930.0
20260506115952 27 82 1.7 4.3 0.00 0.00 0.00 91 930.1
20260506115450 27 76 2.6 5.2 0.00 0.00 0.00 91 929.7
20260506114948 27 78 2.6 4.3 0.00 0.00 0.00 91 929.9
20260506114445 27 71 3.5 5.2 0.00 0.00 0.00 91 929.6
20260506113944 27 62 2.6 5.2 0.00 0.00 0.00 91 929.9
20260506113442 27 69 1.7 4.3 0.00 0.00 0.00 90 929.7
20260506112937 27 63 0.9 1.7 0.00 0.00 0.00 90 929.7
20260506112435 27 67 0.9 2.6 0.00 0.00 0.00 90 929.5
20260506111932 28 81 3.5 4.3 0.00 0.00 0.00 89 929.6
20260506111430 28 63 0.0 2.6 0.00 0.00 0.00 89 929.5
20260506110927 29 46 1.7 2.6 0.00 0.00 0.00 89 929.3
20260506110425 29 34 0.0 1.7 0.00 0.00 0.00 89 929.3
20260506105921 29 37 1.7 5.2 0.00 0.00 0.00 88 929.3
20260506105418 29 39 2.6 7.0 0.00 0.00 0.00 88 929.6
20260506104915 29 60 3.5 7.0 0.00 0.00 0.00 88 929.2
20260506104413 29 56 3.5 7.0 0.00 0.00 0.00 88 929.3
20260506103911 29 89 5.2 7.8 0.00 0.00 0.00 87 929.5
20260506103408 29 61 5.2 11.3 0.00 0.00 0.00 88 929.3
20260506102905 29 72 7.8 9.6 0.00 0.00 0.00 88 929.4
20260506102404 29 65 2.6 5.2 0.00 0.00 0.00 88 929.3
20260506101901 30 61 0.0 2.6 0.00 0.00 0.00 87 929.1
20260506101357 30 61 2.6 4.3 0.00 0.00 0.00 87 929.2
20260506100854 30 114 4.3 7.0 0.00 0.00 0.00 87 929.1
20260506100353 30 109 5.2 7.8 0.00 0.00 0.00 87 929.2
20260506095850 30 118 4.3 7.8 0.00 0.00 0.00 87 929.4
20260506095348 30 61 0.0 0.0 0.00 0.00 0.00 88 929.2
20260506094844 31 74 0.0 1.7 0.00 0.00 0.00 88 929.1
20260506094343 31 69 2.6 5.2 0.00 0.00 0.00 87 929.3
20260506093841 31 61 1.7 6.1 0.00 0.00 0.00 87 929.1
20260506093338 31 137 7.8 9.6 0.00 0.00 0.00 88 929.2
20260506092835 31 138 7.8 7.8 0.00 0.00 0.00 89 929.2
20260506092334 31 106 5.2 13.0 0.00 0.00 0.00 89 929.3
20260506091830 30 98 8.7 12.2 0.00 0.00 0.00 91 929.6
20260506091328 30 87 7.0 11.3 0.00 0.00 0.00 91 929.5
20260506090825 30 121 9.6 14.8 0.00 0.00 0.00 92 929.4
20260506090322 30 36 7.0 9.6 0.00 0.00 0.00 92 929.5
20260506085819 30 67 5.2 9.6 0.00 0.00 0.00 92 929.6
20260506085315 30 80 5.2 9.6 0.00 0.00 0.00 93 929.5
20260506084811 31 126 7.8 12.2 0.00 0.00 0.00 93 929.5
20260506084308 30 95 6.1 13.0 0.00 0.00 0.00 93 929.6
20260506083805 31 89 10.4 13.9 0.00 0.00 0.00 93 929.5
20260506083302 30 79 6.1 7.0 0.00 0.00 0.00 93 929.6
20260506082759 31 107 3.5 7.0 0.00 0.00 0.00 93 929.5
20260506082255 30 143 7.0 11.3 0.00 0.00 0.00 93 929.5
20260506081753 31 95 6.1 11.3 0.00 0.00 0.00 92 929.4
20260506081250 31 96 7.8 15.6 0.00 0.00 0.00 91 929.3
20260506080748 31 112 10.4 15.6 0.00 0.00 0.00 90 929.3
20260506080244 31 107 8.7 13.0 0.00 0.00 0.00 89 928.9
20260506073228 31 111 14.8 20.9 0.00 0.00 0.00 93 928.7
20260506072725 31 114 11.3 21.7 0.00 0.00 0.00 94 928.6
20260506072223 31 105 12.2 19.1 0.00 0.00 0.00 95 928.4
20260506071720 31 72 15.6 21.7 0.00 0.00 0.00 95 928.5
20260506071218 31 104 13.9 26.9 0.00 0.00 0.00 96 928.3
20260506070714 31 103 17.4 23.5 0.00 0.00 0.00 96 928.5
20260506070212 31 103 10.4 13.0 0.00 0.00 0.00 97 928.1
20260506062148 33 68 15.6 26.1 0.00 0.00 0.00 96 927.1
20260506061644 33 69 10.4 22.6 0.00 0.00 0.00 96 927.0
20260506061142 34 103 13.0 19.1 0.00 0.00 0.00 96 927.0
20260506060640 34 93 7.8 20.9 0.00 0.00 0.00 95 926.8
20260506060137 34 69 7.0 21.7 0.00 0.00 0.00 95 926.8